Regional Weather Roundup
Issued by NWS

Home | Current Version | Previous Version | Text Only | Print | Product List | Glossary Off
Versions: 1 2 3 4 5 6 7 8 9 10 11 12 13 14 15 16 17 18 19 20 21 22 23 24 25 26 27 28 29 30 31 32 33 34 35 36 37 38 39 40 41 42 43 44 45 46 47 48 49 50

000
ASUS44 KMEG 240210
RWRTN
TENNESSEE HOURLY STATE WEATHER ROUNDUP
NATIONAL WEATHER SERVICE MEMPHIS TN
800 PM CST MON JAN 23 2017

TNZ002-004-019-021-049-052-054-088>092-240300-
WEST TENNESSEE

CITY           SKY/WX    TMP DP  RH WIND       PRES   REMARKS
MEMPHIS INTL   PTCLDY    43  38  82 S5        29.86R
NWS MEMPHIS      N/A     43 N/A N/A MISG        N/A
JACKSON        CLOUDY    45  39  79 N5        29.86R
DYERSBURG      CLEAR     41  36  81 CALM      29.86R
UNION CITY     CLEAR     39  37  93 CALM      29.85R
PARIS          CLOUDY    39  34  81 CALM      29.83F
HUNTINGDON     CLOUDY    45  37  76 NW7       29.83S
$$

TNZ008-025-027-028-033-062-065-066-240300-
NORTH MIDDLE TENNESSEE

CITY           SKY/WX    TMP DP  RH WIND       PRES   REMARKS
NASHVILLE      CLOUDY    44  36  73 NW14G20   29.81R
PORTLAND       CLOUDY    41  37  87 NW8       29.80R
CLARKSVILLE    CLOUDY    42  34  73 N13       29.83R
SMYRNA         CLOUDY    44  37  76 NW17G23   29.82R
GALLATIN       CLOUDY    43  37  81 W7G17     29.84R
CROSSVILLE     CLOUDY    39  38  96 NW10      29.72R FOG     WCI  32
$$

TNZ061-075-076-078-094-096-097-240300-
SOUTH MIDDLE TENNESSEE

CITY           SKY/WX    TMP DP  RH WIND       PRES   REMARKS
TULLAHOMA      CLOUDY    43  37  81 N9        29.77R
WINCHESTER     CLOUDY    45  39  81 N7        29.75R
MCMINNVILLE    CLOUDY    43  39  87 NW7         N/A
COLUMBIA       CLOUDY    45  41  87 NW6       29.80R
SHELBYVILLE    CLOUDY    46  39  76 NW13      29.79R
$$

TNZ017-018-042-046-047-240300-
NORTHEAST TENNESSEE

CITY           SKY/WX    TMP DP  RH WIND       PRES   REMARKS
TRI CITIES     CLOUDY    48  44  86 W15       29.55R
ELIZABETHTON   DRIZZLE   48  45  87 W7G14     29.53R
$$

TNZ012-013-036-069-073-074-240300-
CENTRAL EAST TENNESSEE

CITY           SKY/WX    TMP DP  RH WIND       PRES   REMARKS
KNOXVILLE      LGT RAIN  47  43  86 W16       29.68R
OAK RIDGE      LGT RAIN  46  43  89 W7        29.69R
GATLINBURG     CLOUDY    46  43  87 W13       29.64R
MORRISTOWN     CLOUDY    48  45  87 NW10G17   29.62R
JACKSBORO      CLOUDY    46  43  87 VRB5G20   29.70R
$$

TNZ083-085-099-240300-
SOUTHEAST TENNESSEE

CITY           SKY/WX    TMP DP  RH WIND       PRES   REMARKS
CHATTANOOGA    MOCLDY    48  40  73 NW9       29.74R
$$

SKY/WX REPORTED AS FAIR MEANS FEW OR NO CLOUDS BELOW
12 THOUSAND FEET.





USA.gov is the U.S. government's official web portal to all federal, state and local government web resources and services.